1500746400.47,32999,24.75,74452.0,7.97,-17.73,-19.75,0,*74
1500746401.72,33000,24.75,74450.8,7.97,-17.79,-19.85,0,*79
1500746402.94,33001,24.75,74448.0,7.97,-17.79,-19.75,0,*77
1500746404.17,33002,24.75,74448.8,7.95,-17.83,-19.75,0,*73
1500746405.44,33003,24.75,74450.0,7.95,-17.79,-19.65,0,*76
1500746406.69,33004,24.75,74452.8,7.95,-17.79,-19.91,0,*7A
1500746407.95,33005,24.81,74454.8,7.95,-17.83,-19.81,0,*7F
1500746409.17,33006,24.75,74454.3,7.97,-17.87,-19.85,0,*7E
1500746410.42,33007,24.75,74450.8,7.97,-17.79,-19.85,0,*7E
1500746411.68,33008,24.81,74452.0,7.95,-17.93,-19.95,0,*76
1500746412.92,33009,24.75,74450.3,7.97,-17.79,-19.85,0,*70
1500746414.15,33010,24.75,74450.3,7.95,-17.83,-19.91,0,*7A
1500746415.41,33011,24.75,74448.8,7.95,-17.93,-19.91,0,*7A
1500746416.63,33012,24.75,74446.3,7.95,-17.83,-19.91,0,*78
1500746417.86,33013,24.75,74446.3,7.93,-17.93,-19.91,0,*7E
1500746419.11,33014,24.75,74440.5,7.95,-17.83,-19.81,0,*7F
1500746420.36,33015,24.81,74444.5,7.95,-17.79,-19.75,0,*70
1500746421.62,33016,24.81,74446.3,7.95,-17.93,-19.91,0,*7D
1500746422.84,33017,24.75,74446.0,7.97,-17.79,-19.75,0,*70
1500746424.07,33018,24.75,74444.8,7.95,-17.83,-19.91,0,*72
1500746425.32,33019,24.75,74448.3,7.95,-17.83,-19.81,0,*72
1500746426.57,33020,24.81,74448.3,7.95,-17.93,-19.91,0,*78
1500746427.82,33021,24.75,74448.0,7.95,-17.83,-19.81,0,*79
1500746429.05,33022,24.81,74448.3,7.95,-17.83,-19.91,0,*7B
1500746430.3,33023,24.75,74448.8,7.95,-17.83,-19.81,0,*7B
1500746431.56,33024,24.75,74448.8,7.95,-17.83,-19.81,0,*7C
1500746432.83,33025,24.75,74452.3,7.95,-17.79,-19.61,0,*76
1500746434.08,33026,24.75,74448.5,7.95,-17.79,-19.75,0,*70
1500746435.35,33027,24.75,74450.3,7.95,-17.79,-19.65,0,*70
1500746436.6,33028,24.75,74450.3,7.95,-17.79,-19.75,0,*7E
1500746437.83,33029,24.75,74450.5,7.95,-17.83,-19.75,0,*7A
1500746439.06,33030,24.75,74450.8,7.95,-17.83,-19.75,0,*72
1500746440.31,33031,24.75,74448.8,7.95,-17.83,-19.81,0,*78
1500746441.56,33032,24.75,74450.8,7.95,-17.83,-19.81,0,*7B
1500746442.81,33033,24.75,74448.3,7.97,-17.93,-19.85,0,*7D
1500746444.07,33034,24.75,74448.5,7.95,-17.97,-19.75,0,*73
1500746445.35,33035,24.75,74448.8,7.95,-17.97,-19.81,0,*79
1500746446.6,33036,24.81,74452.0,7.95,-17.83,-19.61,0,*71
1500746447.88,33037,24.75,74450.3,7.95,-17.79,-19.57,0,*70
1500746449.14,33038,24.75,74448.0,7.95,-17.83,-19.65,0,*7B
1500746450.41,33039,24.75,74450.3,7.95,-17.93,-19.65,0,*7B
1500746451.64,33040,24.75,74450.0,7.95,-17.83,-19.75,0,*75
1500746452.9,33041,24.75,74452.3,7.95,-17.83,-19.61,0,*71
1500746454.15,33042,24.75,74450.0,7.97,-17.79,-19.57,0,*70
1500746455.41,33043,24.75,74448.0,7.97,-17.79,-19.61,0,*74
1500746456.66,33044,24.75,74448.0,7.95,-17.83,-19.61,0,*74
1500746457.92,33045,24.75,74444.5,7.95,-17.69,-19.57,0,*74
1500746459.16,33046,24.75,74454.5,7.95,-17.63,-19.47,0,*7C
1500746460.4,33047,24.75,74450.3,7.97,-17.73,-19.57,0,*7F
1500746461.67,33048,24.75,74454.0,7.95,-17.79,-19.61,0,*7D
1500746462.94,33049,24.75,74448.3,7.95,-17.79,-19.65,0,*78
1500746464.2,33050,24.75,74452.8,7.95,-17.93,-19.75,0,*75
1500746465.45,33051,24.75,74452.8,7.97,-17.93,-19.81,0,*7D
1500746466.7,33052,24.75,74454.5,7.97,-17.79,-19.61,0,*74
1500746467.92,33053,24.75,74454.3,7.97,-17.79,-19.51,0,*76
1500746469.2,33054,24.75,74454.3,7.95,-17.93,-19.65,0,*70
1500746470.4,33055,24.75,74452.8,7.97,-17.87,-19.75,0,*77
1500746471.65,33056,24.75,74450.8,7.95,-17.93,-19.75,0,*73
1500746472.91,33057,24.75,74448.8,7.95,-17.97,-19.75,0,*76
1500746474.19,33058,24.75,74446.8,7.95,-17.97,-19.65,0,*78
1500746475.45,33059,24.75,74444.5,7.95,-17.83,-19.65,0,*7C
1500746476.72,33060,24.75,74446.5,7.95,-17.93,-19.81,0,*7D
1500746477.95,33061,24.75,74448.0,7.97,-17.93,-19.75,0,*75
1500746479.2,33062,24.81,74454.8,7.95,-17.97,-19.75,0,*70
1500746480.48,33063,24.75,74448.0,7.95,-17.93,-19.61,0,*70
1500746481.72,33064,24.75,74450.8,7.99,-17.79,-19.51,0,*7C
1500746482.93,33065,24.75,74446.8,7.97,-17.87,-19.51,0,*72
1500746484.21,33066,24.75,74448.0,7.95,-17.93,-19.65,0,*71
1500746485.48,33067,24.75,74452.3,7.95,-17.93,-19.61,0,*74
1500746486.71,33068,24.75,74454.0,7.95,-18.11,-19.75,0,*7B
1500746487.94,33069,24.75,74450.8,7.93,-18.11,-19.65,0,*7D
1500746489.19,33070,24.75,74448.8,7.95,-18.11,-19.81,0,*79
1500746490.44,33071,24.75,74450.8,7.95,-18.07,-19.65,0,*75
1500746491.72,33072,24.75,74448.0,7.95,-17.97,-19.61,0,*74
1500746492.98,33073,24.75,74448.5,7.95,-17.97,-19.51,0,*76
1500746494.23,33074,24.75,74450.8,7.95,-18.07,-19.61,0,*74
1500746495.49,33075,24.75,74450.8,7.95,-18.07,-19.61,0,*75
1500746496.78,33076,24.75,74450.5,7.95,-17.97,-19.57,0,*75
1500746498.04,33077,24.75,74448.3,7.97,-17.93,-19.57,0,*72
1500746499.26,33078,24.75,74448.8,7.89,-18.01,-19.47,0,*77
1500746500.53,33079,24.75,74448.0,7.93,-17.97,-19.57,0,*7C
1500746501.73,33080,24.75,74448.8,7.97,-18.07,-19.51,0,*7E
1500746502.95,33081,24.75,74448.5,7.95,-18.11,-19.47,0,*7D
1500746504.18,33082,24.75,74444.0,7.97,-17.93,-19.37,0,*7E
1500746505.44,33083,24.75,74444.3,7.93,-17.97,-19.41,0,*7E
1500746506.72,33084,24.75,74444.3,7.95,-17.97,-19.41,0,*7F
1500746507.93,33085,24.75,74444.3,7.89,-18.11,-19.37,0,*73
1500746509.18,33086,24.75,74446.0,7.93,-17.97,-19.31,0,*7C
1500746510.42,33087,24.75,74442.0,7.93,-17.83,-19.27,0,*7F
1500746511.67,33088,24.75,74440.3,7.93,-17.93,-19.31,0,*76
1500746512.87,33089,24.75,74446.5,7.93,-17.83,-19.17,0,*72
1500746514.13,33090,24.75,74448.5,7.93,-17.93,-19.27,0,*78
1500746515.36,33091,24.75,74446.0,7.89,-17.87,-19.31,0,*70
1500746516.61,33092,24.75,74450.0,7.93,-17.93,-19.31,0,*7D
1500746517.86,33093,24.75,74450.0,7.93,-17.93,-19.31,0,*7C
1500746519.1,33094,24.75,74448.3,7.93,-17.83,-19.41,0,*7D
1500746520.35,33095,24.75,74450.0,7.95,-17.83,-19.41,0,*7A
1500746521.57,33096,24.75,74448.3,7.97,-17.79,-19.37,0,*7F
1500746522.82,33097,24.75,74448.3,7.95,-17.93,-19.47,0,*7F
1500746524.08,33098,24.75,74450.0,7.95,-17.97,-19.47,0,*74
1500746525.36,33099,24.75,74448.3,7.95,-17.93,-19.41,0,*77
1500746526.61,33100,24.75,74452.8,7.95,-17.97,-19.47,0,*74
1500746527.84,33101,24.75,74450.8,7.97,-17.93,-19.37,0,*74
1500746529.09,33102,24.75,74448.5,7.95,-17.83,-19.41,0,*75
1500746530.38,33103,24.75,74450.0,7.95,-17.97,-19.41,0,*71
1500746531.63,33104,24.75,74448.3,7.95,-18.11,-19.41,0,*77
1500746532.85,33105,24.75,74448.5,7.95,-18.07,-19.47,0,*77
1500746534.08,33106,24.75,74454.3,7.95,-18.07,-19.37,0,*73
1500746535.36,33107,24.75,74454.3,7.95,-17.97,-19.31,0,*72
1500746536.64,33108,24.75,74452.3,7.95,-17.97,-19.27,0,*7A
1500746537.9,33109,24.75,74454.3,7.95,-18.07,-19.31,0,*7A
1500746539.13,33110,24.75,74454.3,7.97,-18.17,-19.27,0,*76
1500746540.38,33111,24.75,74454.5,7.95,-18.21,-19.27,0,*70
1500746541.63,33112,24.75,74454.3,7.95,-18.21,-19.27,0,*73
1500746542.86,33113,24.75,74448.5,7.95,-18.21,-19.13,0,*75
1500746544.08,33114,24.75,74452.8,7.95,-18.21,-19.17,0,*76
1500746545.31,33115,24.75,74450.5,7.95,-18.21,-19.13,0,*73
1500746546.57,33116,24.75,74450.3,7.95,-18.35,-19.13,0,*75
1500746547.76,33117,24.75,74450.8,7.93,-18.11,-18.99,0,*77
1500746548.96,33118,24.75,74450.0,7.93,-18.11,-18.83,0,*73
1500746550.18,33119,24.75,74450.0,7.93,-18.11,-18.89,0,*78
1500746551.41,33120,24.75,74454.3,7.93,-17.97,-18.65,0,*71
1500746552.66,33121,24.75,74452.0,7.93,-17.93,-18.55,0,*77
1500746553.92,33122,24.75,74452.5,7.93,-17.97,-18.55,0,*70
1500746555.15,33123,24.75,74448.8,7.93,-17.97,-18.49,0,*7C
1500746556.38,33124,24.75,74452.5,7.93,-17.83,-18.35,0,*75
1500746557.61,33125,24.75,74450.5,7.93,-17.83,-18.35,0,*74
1500746558.83,33126,24.75,74452.5,7.93,-17.79,-18.25,0,*73
1500746560.03,33127,24.75,74450.0,7.93,-17.69,-18.41,0,*71
1500746561.23,33128,24.75,74448.8,7.93,-17.69,-18.25,0,*7C
1500746562.45,33129,24.75,74452.3,7.93,-17.59,-18.21,0,*7A
1500746563.67,33130,24.75,74450.8,7.93,-17.59,-18.25,0,*76
1500746564.91,33131,24.75,74450.8,7.89,-17.49,-18.31,0,*78
1500746566.14,33132,24.75,74452.5,7.93,-17.21,-18.21,0,*7F
1500746567.39,33133,24.75,74454.3,7.89,-17.25,-18.31,0,*70
1500746568.62,33134,24.75,74452.5,7.93,-17.17,-18.25,0,*78
1500746569.85,33135,24.75,74454.0,7.89,-17.21,-18.41,0,*75
1500746571.08,33136,24.75,74452.0,7.93,-17.21,-18.49,0,*75
1500746572.31,33137,24.75,74452.0,7.89,-17.21,-18.69,0,*7D
1500746573.54,33138,24.75,74452.8,7.93,-17.21,-18.73,0,*72
1500746574.79,33139,24.75,74452.0,7.93,-17.25,-18.89,0,*72
1500746576.02,33140,24.75,74454.3,7.89,-17.41,-19.17,0,*73
1500746577.22,33141,24.75,74452.8,7.93,-17.31,-19.13,0,*7A
1500746578.43,33142,24.75,74454.5,7.89,-17.35,-19.17,0,*72
1500746579.68,33143,24.75,74454.8,7.93,-17.59,-19.27,0,*71
1500746580.94,33144,24.75,74454.5,7.93,-17.59,-19.31,0,*71
1500746582.14,33145,24.75,74452.5,7.89,-17.73,-19.37,0,*75
1500746583.34,33146,24.75,74452.3,7.89,-17.83,-19.47,0,*7E
1500746584.55,33147,24.75,74452.0,7.93,-17.83,-19.47,0,*74
1500746585.75,33148,24.75,74452.8,7.89,-17.87,-19.51,0,*73
1500746587.01,33149,24.75,74452.3,7.89,-18.01,-19.61,0,*70
1500746588.26,33150,24.75,74452.8,7.89,-18.01,-19.65,0,*7C
1500746589.49,33151,24.75,74454.3,7.89,-18.11,-19.65,0,*7C
1500746590.69,33152,24.75,74456.0,7.89,-18.17,-19.71,0,*7C
1500746591.89,33153,24.75,74458.3,7.89,-18.25,-19.71,0,*7C
1500746593.09,33154,24.75,74450.8,7.85,-18.17,-19.75,0,*72
1500746594.38,33155,24.75,74452.5,7.87,-18.31,-19.85,0,*7A
1500746595.63,33156,24.75,74454.3,7.85,-18.35,-19.85,0,*7F
1500746596.84,33157,24.75,74448.3,7.89,-18.41,-19.71,0,*7A
1500746598.07,33158,24.75,74454.8,7.89,-18.41,-19.81,0,*7A
1500746599.32,33159,24.75,74454.0,7.87,-18.35,-19.75,0,*7D
1500746600.55,33160,24.75,74452.5,7.87,-18.45,-19.75,0,*70
1500746601.78,33161,24.75,74450.3,7.87,-18.45,-19.75,0,*71
1500746603.04,33162,24.75,74450.3,7.87,-18.35,-19.75,0,*75
1500746604.27,33163,24.75,74450.8,7.87,-18.45,-19.75,0,*73
1500746605.52,33164,24.75,74448.0,7.87,-18.49,-19.85,0,*77
1500746606.8,33165,24.75,74446.0,7.87,-18.59,-19.85,0,*77
1500746608.03,33166,24.75,74452.3,7.87,-18.49,-19.75,0,*7A
1500746609.28,33167,24.75,74448.5,7.87,-18.49,-19.85,0,*74
1500746610.57,33168,24.75,74450.3,7.87,-18.31,-19.65,0,*7A
1500746611.8,33169,24.75,74452.0,7.87,-18.21,-19.51,0,*7D
1500746613.03,33170,24.75,74454.5,7.87,-18.21,-19.51,0,*75
1500746614.29,33171,24.75,74454.8,7.87,-18.45,-19.57,0,*70
1500746615.55,33172,24.75,74454.3,7.87,-18.45,-19.65,0,*72
1500746616.8,33173,24.75,74444.8,7.87,-18.49,-19.65,0,*7F
1500746618.04,33174,24.75,74452.8,7.85,-18.45,-19.57,0,*77
1500746619.27,33175,24.75,74454.5,7.87,-18.49,-19.71,0,*7C
1500746620.5,33176,24.75,74452.0,7.87,-18.65,-19.71,0,*71
1500746621.73,33177,24.75,74448.5,7.89,-18.45,-19.65,0,*79
1500746623.01,33178,24.75,74450.0,7.87,-18.59,-19.65,0,*75
1500746624.24,33179,24.75,74452.0,7.87,-18.73,-19.75,0,*7D
1500746625.44,33180,24.75,74450.8,7.85,-18.73,-19.75,0,*79
1500746626.7,33181,24.75,74452.8,7.87,-18.73,-19.85,0,*75
1500746627.93,33182,24.75,74448.5,7.87,-18.65,-19.71,0,*7A
1500746629.21,33183,24.75,74452.5,7.87,-18.59,-19.65,0,*71
1500746630.43,33184,24.75,74448.8,7.85,-18.59,-19.71,0,*71
1500746631.66,33185,24.75,74452.8,7.87,-18.65,-19.71,0,*7D
1500746632.89,33186,24.75,74448.5,7.87,-18.65,-19.71,0,*7E
1500746634.12,33187,24.75,74450.0,7.85,-18.59,-19.71,0,*72
1500746635.34,33188,24.75,74450.3,7.85,-18.59,-19.71,0,*7D
1500746636.57,33189,24.75,74448.8,7.85,-18.49,-19.65,0,*78
1500746637.78,33190,24.75,74450.0,7.85,-18.45,-19.51,0,*7B
1500746639.04,33191,24.75,74450.3,7.87,-18.45,-19.57,0,*7E
1500746640.27,33192,24.75,74450.0,7.85,-18.45,-19.65,0,*7E
1500746641.53,33193,24.75,74448.8,7.87,-18.49,-19.65,0,*71
1500746642.79,33194,24.75,74450.5,7.87,-18.45,-19.57,0,*7B
1500746644.05,33195,24.75,74450.5,7.87,-18.45,-19.57,0,*7A
1500746645.34,33196,24.75,74448.0,7.87,-18.35,-19.57,0,*7E
1500746646.63,33197,24.75,74450.8,7.87,-18.35,-19.57,0,*7F
1500746647.89,33198,24.75,74450.3,7.87,-18.45,-19.57,0,*77
1500746649.15,33199,24.75,74450.3,7.87,-18.31,-19.71,0,*71
1500746650.38,33200,24.75,74450.0,7.87,-18.45,-19.71,0,*71
1500746651.61,33201,24.75,74448.3,7.87,-18.45,-19.75,0,*74
1500746652.84,33202,24.75,74448.3,7.87,-18.45,-19.71,0,*73
1500746654.07,33203,24.75,74448.5,7.87,-18.49,-19.71,0,*7E
1500746655.27,33204,24.75,74448.5,7.85,-18.45,-19.71,0,*77
1500746656.5,33205,24.75,74448.0,7.87,-18.49,-19.71,0,*78
1500746657.7,33206,24.75,74450.3,7.89,-18.45,-19.71,0,*79
1500746658.93,33207,24.75,74450.0,7.85,-18.49,-19.65,0,*7D
1500746660.2,33208,24.75,74450.8,7.85,-18.35,-19.57,0,*78
1500746661.49,33209,24.75,74452.0,7.87,-18.35,-19.57,0,*7B
1500746662.74,33210,24.75,74450.8,7.87,-18.35,-19.51,0,*75
1500746663.98,33211,24.75,74452.3,7.85,-18.31,-19.51,0,*72
1500746665.23,33212,24.75,74450.3,7.87,-18.45,-19.65,0,*77
1500746666.43,33213,24.75,74444.5,7.85,-18.45,-19.51,0,*73
1500746667.72,33214,24.75,74446.5,7.87,-18.31,-19.41,0,*74
1500746668.98,33215,24.75,74450.8,7.87,-18.31,-19.37,0,*74
1500746670.24,33216,24.69,74450.0,7.87,-18.45,-19.41,0,*75
1500746671.47,33217,24.75,74448.0,7.87,-18.73,-19.71,0,*72
1500746672.72,33218,24.75,74448.0,7.87,-18.65,-19.65,0,*7F
1500746673.95,33219,24.75,74450.5,7.87,-18.65,-19.51,0,*79
1500746675.2,33220,24.75,74450.8,7.87,-18.59,-19.51,0,*7C
1500746676.43,33221,24.75,74452.8,7.87,-18.73,-19.51,0,*75
1500746677.72,33222,24.75,74448.0,7.87,-18.59,-19.57,0,*78
1500746678.92,33223,24.75,74448.0,7.85,-18.65,-19.51,0,*72
1500746680.15,33224,24.75,74448.3,7.87,-18.65,-19.51,0,*77
1500746681.38,33225,24.75,74450.0,7.87,-18.65,-19.51,0,*76
1500746682.62,33226,24.75,74450.5,7.85,-18.79,-19.57,0,*7C
1500746683.85,33227,24.75,74450.8,7.87,-18.79,-19.71,0,*7B
1500746685.08,33228,24.75,74450.0,7.87,-18.83,-19.71,0,*71
1500746686.35,33229,24.69,74448.5,7.87,-18.79,-19.57,0,*71
1500746687.61,33230,24.75,74452.5,7.87,-18.83,-19.57,0,*7C
1500746688.84,33231,24.75,74450.3,7.87,-18.83,-19.71,0,*79
1500746690.07,33232,24.75,74450.3,7.85,-18.93,-19.75,0,*7D
1500746691.33,33233,24.75,74448.8,7.85,-18.93,-19.65,0,*7D
1500746692.54,33234,24.75,74448.3,7.85,-18.83,-19.71,0,*7E
1500746693.79,33235,24.75,74450.0,7.87,-18.93,-19.75,0,*78
1500746695.05,33236,24.75,74448.8,7.87,-19.07,-19.85,0,*78
1500746696.31,33237,24.75,74452.3,7.87,-18.93,-19.71,0,*7E
1500746697.53,33238,24.69,74448.3,7.85,-19.07,-19.85,0,*74
1500746698.8,33239,24.75,74450.3,7.87,-19.27,-20.05,0,*77
1500746700.03,33240,24.69,74444.8,7.85,-19.07,-19.85,0,*7B
1500746701.24,33241,24.75,74448.8,7.85,-19.07,-19.91,0,*7F
1500746702.47,33242,24.75,74450.8,7.87,-19.07,-19.75,0,*74
1500746703.67,33243,24.75,74452.5,7.85,-19.07,-19.91,0,*7D
1500746704.91,33244,24.69,74448.0,7.87,-18.99,-19.71,0,*70
1500746706.14,33245,24.75,74454.5,7.85,-18.83,-19.57,0,*7C
1500746707.35,33246,24.75,74454.3,7.85,-18.99,-19.75,0,*74
1500746708.58,33247,24.75,74456.5,7.85,-19.07,-19.85,0,*7C
1500746709.78,33248,24.75,74452.0,7.85,-18.79,-19.51,0,*72
1500746711.04,33249,24.75,74452.3,7.87,-18.83,-19.65,0,*73
1500746712.27,33250,24.69,74450.8,7.85,-18.93,-19.71,0,*7D
1500746713.51,33251,24.75,74452.0,7.85,-19.13,-19.85,0,*7E
1500746714.76,33252,24.75,74454.3,7.87,-18.99,-19.85,0,*7C
1500746715.97,33253,24.75,74454.3,7.85,-18.99,-19.71,0,*74
1500746717.17,33254,24.75,74450.8,7.85,-18.99,-19.71,0,*73
1500746718.38,33255,24.75,74452.3,7.85,-19.07,-19.75,0,*70
1500746719.61,33256,24.75,74454.3,7.87,-19.07,-19.75,0,*71
1500746720.84,33257,24.75,74454.5,7.85,-18.93,-19.71,0,*7A
1500746722.1,33258,24.75,74454.5,7.85,-18.93,-19.65,0,*70
1500746723.33,33259,24.69,74450.0,7.85,-19.07,-19.85,0,*73
1500746724.54,33260,24.75,74450.8,7.85,-18.99,-19.75,0,*70
1500746725.74,33261,24.75,74450.8,7.85,-18.99,-19.75,0,*71
1500746726.97,33262,24.75,74452.5,7.85,-18.93,-19.71,0,*7C
1500746728.23,33263,24.69,74448.8,7.85,-18.93,-19.85,0,*76
1500746729.44,33264,24.75,74452.5,7.85,-19.07,-19.75,0,*72
1500746730.64,33265,24.75,74454.0,7.85,-19.07,-19.75,0,*73
1500746731.9,33266,24.69,74450.0,7.85,-18.93,-19.65,0,*7D
1500746733.16,33267,24.69,74450.0,7.85,-18.93,-19.65,0,*7C
1500746734.42,33268,24.75,74454.5,7.85,-18.93,-19.65,0,*73
1500746735.62,33269,24.69,74454.5,7.85,-18.99,-19.71,0,*7D
1500746736.85,33270,24.69,74448.0,7.85,-19.07,-19.85,0,*78
1500746738.06,33271,24.75,74452.5,7.85,-19.13,-19.75,0,*73
1500746739.27,33272,24.75,74450.5,7.85,-19.07,-19.75,0,*75
1500746740.5,33273,24.75,74446.8,7.85,-18.99,-19.65,0,*73
1500746741.75,33274,24.75,74444.8,7.83,-18.99,-19.61,0,*76
1500746742.96,33275,24.75,74448.8,7.85,-18.79,-19.51,0,*7C
1500746744.2,33276,24.75,74452.3,7.85,-18.83,-19.57,0,*7C
1500746745.43,33277,24.75,74454.5,7.85,-18.83,-19.57,0,*7D
1500746746.66,33278,24.75,74456.5,7.83,-19.03,-19.71,0,*79
1500746747.91,33279,24.75,74450.8,7.83,-18.99,-19.61,0,*7B
1500746749.13,33280,24.75,74454.3,7.83,-18.99,-19.71,0,*7C
1500746750.36,33281,24.69,74448.8,7.83,-19.03,-19.75,0,*7B
1500746751.59,33282,24.75,74450.0,7.85,-18.93,-19.71,0,*72
1500746752.85,33283,24.69,74450.0,7.85,-18.93,-19.65,0,*76
1500746754.11,33284,24.69,74450.5,7.85,-18.93,-19.65,0,*71
1500746755.33,33285,24.75,74450.5,7.83,-19.03,-19.75,0,*7F
1500746756.56,33286,24.75,74454.0,7.85,-19.07,-19.85,0,*71
1500746757.79,33287,24.75,74450.3,7.85,-19.07,-19.65,0,*7E
1500746759.07,33288,24.69,74448.8,7.87,-18.93,-19.65,0,*7F
1500746760.34,33289,24.75,74450.5,7.85,-18.93,-19.57,0,*7D
1500746761.58,33290,24.69,74452.5,7.85,-18.83,-19.57,0,*74
1500746762.85,33291,24.69,74450.8,7.83,-18.89,-19.57,0,*79
1500746764.09,33292,24.69,74452.0,7.85,-18.83,-19.57,0,*76
1500746765.3,33293,24.75,74454.3,7.85,-18.99,-19.71,0,*78
1500746766.56,33294,24.75,74452.5,7.85,-18.93,-19.65,0,*70
1500746767.76,33295,24.69,74448.3,7.85,-18.99,-19.71,0,*7E
1500746768.97,33296,24.69,74446.3,7.85,-18.99,-19.75,0,*79
1500746770.2,33297,24.69,74450.3,7.85,-18.93,-19.51,0,*74
1500746771.4,33298,24.69,74450.8,7.85,-18.99,-19.71,0,*73
1500746772.63,33299,24.75,74452.0,7.85,-18.93,-19.71,0,*78
1500746773.87,33300,24.69,74452.0,7.85,-18.99,-19.65,0,*76
1500746775.1,33301,24.69,74454.5,7.87,-18.99,-19.71,0,*70
1500746776.35,33302,24.69,74448.3,7.87,-18.99,-19.65,0,*76
1500746777.61,33303,24.75,74454.3,7.87,-18.93,-19.71,0,*78
1500746778.84,33304,24.69,74452.0,7.87,-19.07,-19.71,0,*73
1500746780.07,33305,24.69,74450.5,7.87,-18.99,-19.71,0,*74
1500746781.28,33306,24.69,74454.8,7.85,-18.99,-19.71,0,*75
1500746782.48,33307,24.69,74450.8,7.85,-18.99,-19.71,0,*74
1500746783.69,33308,24.69,74450.5,7.85,-18.99,-19.71,0,*7B
1500746784.92,33309,24.69,74450.5,7.87,-19.07,-19.71,0,*7E
1500746786.16,33310,24.69,74454.3,7.85,-19.13,-19.85,0,*7A
1500746787.39,33311,24.75,74454.5,7.87,-19.07,-19.75,0,*73
1500746788.59,33312,24.69,74452.3,7.85,-18.99,-19.71,0,*70
1500746789.82,33313,24.69,74452.0,7.85,-19.07,-19.65,0,*72
1500746791.06,33314,24.69,74454.8,7.85,-18.99,-19.57,0,*72
1500746792.29,33315,24.69,74454.8,7.87,-19.07,-19.71,0,*73
1500746793.52,33316,24.69,74454.8,7.83,-19.17,-19.91,0,*7B
1500746794.79,33317,24.69,74454.0,7.85,-19.27,-19.85,0,*7A
1500746796.07,33318,24.75,74454.5,7.87,-19.23,-19.85,0,*73
1500746797.27,33319,24.69,74454.8,7.85,-19.07,-19.71,0,*7D
1500746798.48,33320,24.69,74458.5,7.85,-19.13,-19.71,0,*72
1500746799.72,33321,24.69,74454.0,7.85,-18.99,-19.65,0,*75
1500746800.95,33322,24.69,74456.5,7.87,-19.13,-19.75,0,*76
1500746802.21,33323,24.69,74454.8,7.87,-19.23,-19.75,0,*74
1500746803.45,33324,24.69,74458.5,7.85,-19.23,-19.75,0,*71
1500746804.73,33325,24.69,74458.3,7.87,-19.23,-19.85,0,*7D
1500746805.99,33326,24.69,74452.8,7.85,-19.23,-19.85,0,*7C
1500746807.24,33327,24.69,74458.0,7.87,-19.23,-19.75,0,*70
1500746808.48,33328,24.69,74454.5,7.87,-19.37,-19.91,0,*70
1500746809.72,33329,24.69,74454.0,7.87,-19.37,-19.91,0,*71
1500746810.98,33330,24.69,74450.3,7.85,-19.27,-19.85,0,*7F
1500746812.25,33331,24.69,74452.0,7.87,-19.27,-19.91,0,*79
1500746813.51,33332,24.69,74454.0,7.87,-19.23,-19.91,0,*7E
1500746814.74,33333,24.69,74450.3,7.85,-19.23,-19.75,0,*77
1500746815.97,33334,24.69,74454.5,7.85,-19.23,-19.75,0,*70
1500746817.23,33335,24.69,74454.5,7.87,-19.23,-19.75,0,*73
1500746818.5,33336,24.69,74454.8,7.85,-19.27,-19.85,0,*79
1500746819.75,33337,24.69,74452.5,7.83,-19.31,-19.95,0,*78
1500746820.96,33338,24.69,74450.5,7.85,-19.37,-19.91,0,*73
1500746822.2,33339,24.69,74454.5,7.85,-19.23,-19.75,0,*7D
1500746823.45,33340,24.69,74450.0,7.85,-19.23,-19.85,0,*7C
1500746824.69,33341,24.69,74452.8,7.85,-19.27,-19.75,0,*76
1500746825.93,33342,24.69,74448.3,7.85,-19.27,-19.75,0,*75
1500746827.17,33343,24.69,74452.8,7.85,-19.27,-19.75,0,*74
1500746828.43,33344,24.69,74454.0,7.87,-19.23,-19.75,0,*75
1500746829.67,33345,24.69,74454.8,7.85,-19.27,-19.75,0,*72
1500746830.91,33346,24.69,74454.0,7.85,-19.27,-19.75,0,*71
1500746832.15,33347,24.69,74448.0,7.85,-19.27,-19.75,0,*70
1500746833.42,33348,24.69,74454.0,7.85,-19.27,-19.85,0,*70
1500746834.66,33349,24.69,74452.3,7.85,-19.27,-19.75,0,*7E
1500746835.92,33350,24.69,74450.5,7.85,-19.27,-19.85,0,*79
1500746837.15,33351,24.69,74450.3,7.85,-19.41,-19.91,0,*7D
1500746838.4,33352,24.69,74450.5,7.83,-19.41,-20.05,0,*7F
1500746839.65,33353,24.69,74450.0,7.83,-19.41,-19.95,0,*7D
1500746840.92,33354,24.69,74450.5,7.83,-19.41,-19.81,0,*7F
1500746842.18,33355,24.69,74448.3,7.85,-19.23,-19.85,0,*78
1500746843.44,33356,24.69,74450.5,7.85,-19.27,-19.85,0,*7F
1500746844.71,33357,24.69,74448.0,7.85,-19.27,-19.85,0,*7E
1500746845.97,33358,24.69,74450.8,7.83,-19.27,-19.91,0,*72
1500746847.2,33359,24.69,74450.0,7.85,-19.23,-19.75,0,*7B
1500746848.44,33360,24.69,74450.3,7.81,-19.27,-19.91,0,*7B
1500746849.68,33361,24.69,74454.8,7.81,-19.31,-19.91,0,*7D
1500746850.91,33362,24.69,74454.5,7.85,-19.27,-19.75,0,*77
1500746852.16,33363,24.69,74454.3,7.85,-19.27,-19.91,0,*7C
1500746853.44,33364,24.69,74452.3,7.83,-19.27,-19.81,0,*7C
1500746854.68,33365,24.69,74450.3,7.81,-19.27,-19.71,0,*70
1500746855.94,33366,24.69,74452.0,7.81,-19.27,-19.81,0,*7C
1500746857.17,33367,24.69,74448.8,7.83,-19.13,-19.71,0,*77
1500746858.41,33368,24.69,74452.0,7.81,-19.27,-19.75,0,*79
1500746859.67,33369,24.69,74452.0,7.81,-19.31,-19.81,0,*74
1500746860.92,33370,24.69,74452.3,7.81,-19.31,-19.81,0,*7C
1500746862.21,33371,24.69,74452.3,7.83,-19.27,-19.81,0,*78
1500746863.44,33372,24.69,74450.5,7.81,-19.41,-19.91,0,*78
1500746864.69,33373,24.69,74450.3,7.81,-19.31,-19.81,0,*7F
1500746865.95,33374,24.69,74448.8,7.83,-19.31,-19.91,0,*7B
1500746867.18,33375,24.69,74448.8,7.83,-19.47,-19.95,0,*7F
1500746868.39,33376,24.69,74450.5,7.85,-19.37,-19.91,0,*79
1500746869.59,33377,24.69,74450.5,7.81,-19.47,-19.95,0,*7F
1500746870.82,33378,24.69,74446.0,7.83,-19.47,-19.95,0,*72
1500746872.03,33379,24.69,74448.0,7.81,-19.47,-19.95,0,*71
1500746873.28,33380,24.69,74446.8,7.83,-19.41,-20.05,0,*70
1500746874.54,33381,24.69,74444.8,7.81,-19.31,-19.81,0,*72
1500746875.74,33382,24.69,74440.5,7.81,-19.17,-19.75,0,*7E
1500746876.95,33383,24.69,74444.8,7.81,-19.17,-19.75,0,*7F
1500746878.16,33384,24.69,74448.0,7.81,-19.17,-19.75,0,*78
1500746879.37,33385,24.69,74448.0,7.81,-19.13,-19.71,0,*79
1500746880.61,33386,24.69,74450.3,7.81,-19.31,-19.75,0,*7E
1500746881.86,33387,24.69,74450.3,7.81,-19.31,-19.81,0,*74
1500746883.1,33388,24.69,74454.5,7.81,-19.27,-19.75,0,*77
1500746884.31,33389,24.69,74450.5,7.81,-19.17,-19.75,0,*75
1500746885.55,33390,24.69,74448.5,7.81,-19.17,-19.61,0,*78
1500746886.76,33391,24.69,74448.0,7.81,-19.17,-19.71,0,*78
1500746887.96,33392,24.69,74446.3,7.81,-19.17,-19.71,0,*7B
1500746889.17,33393,24.69,74448.8,7.81,-19.17,-19.75,0,*7E
1500746890.41,33394,24.69,74446.0,7.81,-19.27,-19.71,0,*7E
1500746891.64,33395,24.69,74444.8,7.81,-19.31,-19.75,0,*7C
1500746892.88,33396,24.69,74442.8,7.81,-19.27,-19.75,0,*78
1500746894.12,33397,24.69,74442.5,7.81,-19.27,-19.71,0,*7D
1500746895.36,33398,24.69,74448.3,7.81,-19.17,-19.61,0,*70
1500746896.57,33399,24.69,74450.5,7.81,-19.17,-19.75,0,*74
1500746897.8,33400,24.69,74446.5,7.81,-19.03,-19.57,0,*76
1500746899.01,33401,24.69,74444.3,7.81,-19.17,-19.71,0,*76
1500746900.25,33402,24.69,74440.5,7.81,-19.13,-19.61,0,*70
1500746901.48,33403,24.69,74446.3,7.81,-19.13,-19.61,0,*71
1500746902.73,33404,24.69,74444.0,7.81,-19.17,-19.57,0,*77
1500746903.96,33405,24.69,74450.5,7.81,-19.17,-19.61,0,*73